Time,TemperatureF,DewpointF,PressureIn,WindDirection,WindDirectionDegrees,WindSpeedMPH,WindSpeedGustMPH,Humidity,HourlyPrecipIn,Conditions,Clouds,dailyrainin,SoftwareType,DateUTC
2013-03-11 00:00:00,35.7,32.0,30.37,SSW,201,2.0,9.0,85,0.00,,,0.00,weatherlink.com 1.10,2013-03-11 04:00:00,
2013-03-11 00:15:00,35.7,32.0,30.36,SSW,205,1.0,7.0,85,0.00,,,0.00,weatherlink.com 1.10,2013-03-11 04:15:00,
2013-03-11 00:30:00,35.7,32.0,30.36,SE,130,1.0,6.0,86,0.00,,,0.00,weatherlink.com 1.10,2013-03-11 04:30:00,
2013-03-11 00:45:00,35.7,32.0,30.36,South,179,2.0,6.0,86,0.00,,,0.00,weatherlink.com 1.10,2013-03-11 04:45:00,
2013-03-11 01:15:00,35.6,32.0,30.36,South,169,2.0,4.0,86,0.00,,,0.00,weatherlink.com 1.10,2013-03-11 05:15:00,
2013-03-11 01:30:00,35.6,32.0,30.36,SSE,163,1.0,5.0,86,0.00,,,0.00,weatherlink.com 1.10,2013-03-11 05:30:00,
2013-03-11 01:45:00,35.6,32.0,30.37,West,259,2.0,8.0,86,0.00,,,0.00,weatherlink.com 1.10,2013-03-11 05:45:00,
2013-03-11 02:00:00,35.7,32.0,30.37,SW,226,3.0,5.0,86,0.00,,,0.00,weatherlink.com 1.10,2013-03-11 06:00:00,
2013-03-11 02:15:00,36.0,32.0,30.38,WNW,287,0.0,6.0,86,0.00,,,0.00,weatherlink.com 1.10,2013-03-11 06:15:00,
2013-03-11 02:30:00,36.1,32.0,30.37,SW,233,4.0,5.0,86,0.00,,,0.00,weatherlink.com 1.10,2013-03-11 06:30:00,
2013-03-11 02:45:00,36.0,32.0,30.36,SSW,208,2.0,8.0,86,0.00,,,0.00,weatherlink.com 1.10,2013-03-11 06:45:00,
2013-03-11 03:00:00,36.1,32.0,30.36,SW,226,4.0,4.0,86,0.00,,,0.00,weatherlink.com 1.10,2013-03-11 07:00:00,
2013-03-11 03:15:00,36.0,32.0,30.34,SW,219,4.0,7.0,86,0.00,,,0.00,weatherlink.com 1.10,2013-03-11 07:15:00,
2013-03-11 03:30:00,35.9,32.0,30.33,SSW,197,4.0,6.0,86,0.00,,,0.00,weatherlink.com 1.10,2013-03-11 07:30:00,
2013-03-11 03:45:00,35.7,32.0,30.31,South,187,5.0,8.0,86,0.00,,,0.00,weatherlink.com 1.10,2013-03-11 07:45:00,
2013-03-11 04:00:00,35.7,32.0,30.31,WSW,256,3.0,9.0,86,0.00,,,0.00,weatherlink.com 1.10,2013-03-11 08:00:00,
2013-03-11 04:15:00,35.7,32.0,30.32,SSW,211,4.0,8.0,86,0.00,,,0.00,weatherlink.com 1.10,2013-03-11 08:15:00,
2013-03-11 04:30:00,35.9,32.0,30.33,SW,228,4.0,8.0,86,0.00,,,0.00,weatherlink.com 1.10,2013-03-11 08:30:00,
2013-03-11 04:45:00,35.9,32.0,30.32,SSE,155,3.0,7.0,86,0.00,,,0.00,weatherlink.com 1.10,2013-03-11 08:45:00,
2013-03-11 05:00:00,35.7,32.0,30.32,SW,229,7.0,10.0,85,0.00,,,0.00,weatherlink.com 1.10,2013-03-11 09:00:00,
2013-03-11 05:15:00,35.7,32.0,30.32,SW,218,6.0,9.0,85,0.00,,,0.00,weatherlink.com 1.10,2013-03-11 09:15:00,
2013-03-11 05:30:00,35.6,32.0,30.31,SW,225,5.0,9.0,86,0.00,,,0.00,weatherlink.com 1.10,2013-03-11 09:30:00,
2013-03-11 05:45:00,35.5,32.0,30.30,SSW,197,2.0,8.0,86,0.00,,,0.00,weatherlink.com 1.10,2013-03-11 09:45:00,
2013-03-11 06:00:00,35.5,32.0,30.30,SW,214,5.0,7.0,86,0.00,,,0.00,weatherlink.com 1.10,2013-03-11 10:00:00,
2013-03-11 06:15:00,35.5,32.0,30.30,SW,221,7.0,7.0,86,0.00,,,0.00,weatherlink.com 1.10,2013-03-11 10:15:00,
2013-03-11 06:30:00,35.5,32.0,30.31,SW,217,5.0,7.0,86,0.00,,,0.00,weatherlink.com 1.10,2013-03-11 10:30:00,
2013-03-11 06:45:00,35.8,32.0,30.32,SW,236,2.0,8.0,86,0.00,,,0.00,weatherlink.com 1.10,2013-03-11 10:45:00,
2013-03-11 07:00:00,35.9,32.0,30.32,SSW,195,4.0,7.0,85,0.00,,,0.00,weatherlink.com 1.10,2013-03-11 11:00:00,
2013-03-11 07:15:00,35.9,32.0,30.32,SSE,149,1.0,7.0,85,0.00,,,0.00,weatherlink.com 1.10,2013-03-11 11:15:00,
2013-03-11 07:30:00,35.9,32.0,30.32,SE,145,5.0,12.0,85,0.00,,,0.00,weatherlink.com 1.10,2013-03-11 11:30:00,
2013-03-11 07:46:00,36.0,32.0,30.31,South,177,4.0,8.0,85,0.00,,,0.00,weatherlink.com 1.10,2013-03-11 11:46:00,
2013-03-11 08:01:00,36.1,32.0,30.31,South,186,4.0,10.0,85,0.00,,,0.00,weatherlink.com 1.10,2013-03-11 12:01:00,
2013-03-11 08:16:00,36.4,32.0,30.31,WSW,248,0.0,6.0,85,0.00,,,0.00,weatherlink.com 1.10,2013-03-11 12:16:00,
2013-03-11 08:31:00,36.9,33.0,30.31,SW,226,4.0,7.0,84,0.00,,,0.00,weatherlink.com 1.10,2013-03-11 12:31:00,
2013-03-11 09:01:00,37.8,33.0,30.31,SW,218,3.0,11.0,83,0.00,,,0.00,weatherlink.com 1.10,2013-03-11 13:01:00,
2013-03-11 09:16:00,38.3,34.0,30.31,SSW,194,6.0,12.0,83,0.00,,,0.00,weatherlink.com 1.10,2013-03-11 13:16:00,
2013-03-11 09:31:00,38.9,34.0,30.30,SSW,205,2.0,11.0,82,0.00,,,0.00,weatherlink.com 1.10,2013-03-11 13:31:00,
2013-03-11 10:01:00,41.1,35.0,30.30,SSW,205,7.0,10.0,78,0.00,,,0.00,weatherlink.com 1.10,2013-03-11 14:01:00,
2013-03-11 10:16:00,41.7,35.0,30.30,SSW,211,2.0,7.0,77,0.00,,,0.00,weatherlink.com 1.10,2013-03-11 14:16:00,
2013-03-11 10:31:00,42.3,35.0,30.30,SW,218,4.0,10.0,75,0.00,,,0.00,weatherlink.com 1.10,2013-03-11 14:31:00,
2013-03-11 10:46:00,43.7,36.0,30.30,SSW,212,8.0,12.0,73,0.00,,,0.00,weatherlink.com 1.10,2013-03-11 14:46:00,
2013-03-11 11:01:00,44.6,35.0,30.29,SSW,212,7.0,9.0,70,0.00,,,0.00,weatherlink.com 1.10,2013-03-11 15:01:00,
2013-03-11 11:31:00,45.3,36.0,30.30,West,276,2.0,9.0,71,0.00,,,0.00,weatherlink.com 1.10,2013-03-11 15:31:00,
2013-03-11 11:46:00,46.4,37.0,30.29,SW,233,1.0,9.0,69,0.00,,,0.00,weatherlink.com 1.10,2013-03-11 15:46:00,
2013-03-11 12:02:00,47.0,36.0,30.29,SW,229,2.0,9.0,67,0.00,,,0.00,weatherlink.com 1.10,2013-03-11 16:02:00,
2013-03-11 12:16:00,47.5,36.0,30.29,WSW,240,5.0,11.0,64,0.00,,,0.00,weatherlink.com 1.10,2013-03-11 16:16:00,
2013-03-11 12:32:00,47.8,36.0,30.29,WSW,243,0.0,9.0,64,0.00,,,0.00,weatherlink.com 1.10,2013-03-11 16:32:00,
2013-03-11 12:47:00,47.8,36.0,30.28,South,186,1.0,10.0,64,0.00,,,0.00,weatherlink.com 1.10,2013-03-11 16:47:00,
2013-03-11 13:02:00,47.7,36.0,30.29,South,190,2.0,8.0,65,0.00,,,0.00,weatherlink.com 1.10,2013-03-11 17:02:00,
2013-03-11 13:17:00,47.9,37.0,30.28,SW,229,4.0,9.0,65,0.00,,,0.00,weatherlink.com 1.10,2013-03-11 17:17:00,
2013-03-11 13:32:00,48.4,37.0,30.27,West,271,1.0,7.0,65,0.00,,,0.00,weatherlink.com 1.10,2013-03-11 17:32:00,
2013-03-11 14:17:00,49.3,37.0,30.25,SW,226,2.0,10.0,64,0.00,,,0.00,weatherlink.com 1.10,2013-03-11 18:17:00,
2013-03-11 14:32:00,50.4,38.0,30.24,SE,127,3.0,8.0,63,0.00,,,0.00,weatherlink.com 1.10,2013-03-11 18:32:00,
2013-03-11 14:47:00,50.4,38.0,30.24,SW,236,4.0,10.0,62,0.00,,,0.00,weatherlink.com 1.10,2013-03-11 18:47:00,
2013-03-11 15:02:00,51.0,38.0,30.24,SW,219,5.0,12.0,62,0.00,,,0.00,weatherlink.com 1.10,2013-03-11 19:02:00,
2013-03-11 15:17:00,51.1,38.0,30.24,SSE,160,3.0,10.0,62,0.00,,,0.00,weatherlink.com 1.10,2013-03-11 19:17:00,
2013-03-11 15:32:00,51.0,39.0,30.23,SW,228,5.0,13.0,63,0.00,,,0.00,weatherlink.com 1.10,2013-03-11 19:32:00,
2013-03-11 15:47:00,52.2,39.0,30.23,South,179,7.0,9.0,61,0.00,,,0.00,weatherlink.com 1.10,2013-03-11 19:47:00,
2013-03-11 16:02:00,52.5,39.0,30.23,SW,217,2.0,13.0,60,0.00,,,0.00,weatherlink.com 1.10,2013-03-11 20:02:00,
2013-03-11 16:17:00,52.6,39.0,30.23,SW,214,3.0,12.0,60,0.00,,,0.00,weatherlink.com 1.10,2013-03-11 20:17:00,
2013-03-11 16:32:00,52.5,39.0,30.22,SSW,203,4.0,10.0,61,0.00,,,0.00,weatherlink.com 1.10,2013-03-11 20:32:00,
2013-03-11 17:17:00,50.3,39.0,30.22,South,169,7.0,12.0,66,0.00,,,0.00,weatherlink.com 1.10,2013-03-11 21:17:00,
2013-03-11 17:32:00,49.6,39.0,30.22,South,184,9.0,10.0,67,0.00,,,0.00,weatherlink.com 1.10,2013-03-11 21:32:00,
2013-03-11 18:17:00,47.2,39.0,30.22,SW,219,7.0,14.0,73,0.00,,,0.00,weatherlink.com 1.10,2013-03-11 22:17:00,
2013-03-11 18:32:00,46.5,39.0,30.22,South,173,5.0,10.0,75,0.00,,,0.00,weatherlink.com 1.10,2013-03-11 22:32:00,
2013-03-11 18:47:00,46.0,39.0,30.22,SW,228,7.0,11.0,77,0.00,,,0.00,weatherlink.com 1.10,2013-03-11 22:47:00,
2013-03-11 19:02:00,45.7,39.0,30.23,SW,233,5.0,7.0,77,0.00,,,0.00,weatherlink.com 1.10,2013-03-11 23:02:00,
2013-03-11 19:17:00,45.5,39.0,30.22,South,181,10.0,10.0,78,0.00,,,0.00,weatherlink.com 1.10,2013-03-11 23:17:00,
2013-03-11 19:32:00,45.1,39.0,30.22,SSW,203,4.0,9.0,80,0.00,,,0.00,weatherlink.com 1.10,2013-03-11 23:32:00,
2013-03-11 19:47:00,44.8,40.0,30.22,SSW,200,5.0,10.0,82,0.00,,,0.00,weatherlink.com 1.10,2013-03-11 23:47:00,
2013-03-11 20:02:00,44.5,40.0,30.22,SW,214,5.0,10.0,83,0.00,,,0.00,weatherlink.com 1.10,2013-03-12 00:02:00,
2013-03-11 20:32:00,44.0,40.0,30.22,SW,225,1.0,8.0,85,0.00,,,0.00,weatherlink.com 1.10,2013-03-12 00:32:00,
2013-03-11 20:47:00,43.9,40.0,30.22,SSW,198,2.0,7.0,85,0.00,,,0.00,weatherlink.com 1.10,2013-03-12 00:47:00,
2013-03-11 21:02:00,43.7,40.0,30.22,West,262,2.0,5.0,86,0.00,,,0.00,weatherlink.com 1.10,2013-03-12 01:02:00,
2013-03-11 21:17:00,43.4,40.0,30.22,WSW,242,1.0,8.0,86,0.00,,,0.00,weatherlink.com 1.10,2013-03-12 01:17:00,
2013-03-11 21:32:00,43.2,40.0,30.22,WSW,239,5.0,7.0,87,0.00,,,0.00,weatherlink.com 1.10,2013-03-12 01:32:00,
2013-03-11 21:47:00,43.1,40.0,30.21,SSW,210,4.0,6.0,87,0.00,,,0.00,weatherlink.com 1.10,2013-03-12 01:47:00,
2013-03-11 22:02:00,43.1,40.0,30.21,SSW,212,3.0,11.0,87,0.00,,,0.00,weatherlink.com 1.10,2013-03-12 02:02:00,
2013-03-11 22:17:00,43.0,40.0,30.21,WSW,256,2.0,5.0,88,0.00,,,0.00,weatherlink.com 1.10,2013-03-12 02:17:00,
2013-03-11 22:32:00,42.8,40.0,30.21,South,176,4.0,6.0,88,0.00,,,0.00,weatherlink.com 1.10,2013-03-12 02:32:00,
2013-03-11 22:47:00,42.6,40.0,30.20,SW,217,4.0,6.0,89,0.00,,,0.00,weatherlink.com 1.10,2013-03-12 02:47:00,
2013-03-11 23:03:00,42.4,39.0,30.20,SW,236,3.0,5.0,89,0.00,,,0.00,weatherlink.com 1.10,2013-03-12 03:03:00,
2013-03-11 23:48:00,42.0,39.0,30.21,WSW,238,4.0,5.0,90,0.00,,,0.00,weatherlink.com 1.10,2013-03-12 03:48:00,